Home   Weather   Rhodes   Past weeks

Flag for Greece Past Weather in Rhodes, Rhodes, Greece — Yesterday and Last 2 Weeks

Now
46 °F

Passing clouds.


Feels Like: 46 °F
Forecast: 51 / 58 °F
Wind: 2 mph from Southeast

Location: Rhodes Airport

Current Time: Jan 22, 2017 at 6:01:11 am

Latest Report: Jan 22, 2017 at 5:20 am


Visibility: N/A

Pressure: 30.18 "Hg

Humidity: 76%

Dew Point: 39 °F

Location of RhodesLocation

Past Weather in Rhodes — Graph

°F

Rhodes Temperature Yesterday

Maximum temperature yesterday: 57 °F (at 2:50 pm)
Minimum temperature yesterday: 50 °F (at 10:50 pm)
Average temperature yesterday: 53 °F

High & Low Weather Summary for the Past Weeks

 TemperatureHumidityPressure
High63 °F (Jan 15, 12:50 pm)94% (Jan 16, 5:50 am)30.24 "Hg (Jan 16, 5:50 am)
Low39 °F (Jan 8, 12:50 am)34% (Jan 9, 1:50 pm)29.59 "Hg (Jan 7, 4:20 am)
Average52 °F71%30.00 "Hg
* Reported Jan 7 4:20 am — Jan 22 4:50 am, Rhodes, Weather by CustomWeather, © 2017

Note: Actual official high and low records may vary slightly from our data, if they occured in-between our weather recording intervals... More about our weather records

Advertising

Rhodes Weather History for the Previous 24 Hours

Scroll right to see more
 ConditionsComfort  
Time TempWeatherWind HumidityBarometerVisibility
4:50 am
Sun, Jan 22
46 °FPassing clouds.2 mph76%30.18 "HgN/A
4:20 am46 °FPassing clouds.No wind76%30.21 "HgN/A
3:50 am46 °FPassing clouds.2 mph76%30.21 "HgN/A
3:20 am46 °FPassing clouds.3 mph71%30.18 "HgN/A
2:50 am46 °FPassing clouds.1 mph71%30.18 "HgN/A
2:20 am46 °FPassing clouds.2 mph71%30.18 "HgN/A
1:50 am46 °FPassing clouds.1 mph71%30.18 "HgN/A
1:20 am48 °FPassing clouds.2 mph76%30.18 "HgN/A
12:50 am48 °FPassing clouds.3 mph76%30.18 "HgN/A
11:50 pm
Sat, Jan 21
50 °FPassing clouds.2 mph71%30.18 "HgN/A
11:20 pm50 °FPassing clouds.3 mph71%30.18 "HgN/A
10:50 pm50 °FPassing clouds.2 mph71%30.18 "HgN/A
10:20 pm54 °FPassing clouds.5 mph63%30.18 "HgN/A
9:50 pm54 °FPassing clouds.6 mph63%30.18 "HgN/A
9:20 pm54 °FPassing clouds.8 mph63%30.15 "HgN/A
8:50 pm54 °FPassing clouds.9 mph63%30.15 "HgN/A
8:20 pm54 °FPassing clouds.9 mph63%30.15 "HgN/A
7:50 pm54 °FPassing clouds.9 mph63%30.15 "HgN/A
7:20 pm54 °FPassing clouds.9 mph63%30.15 "HgN/A
6:50 pm54 °FPassing clouds.10 mph63%30.15 "HgN/A
6:20 pm54 °FPassing clouds.10 mph63%30.15 "HgN/A
5:50 pm54 °FPassing clouds.10 mph67%30.15 "HgN/A
5:20 pm54 °FPassing clouds.9 mph63%30.15 "HgN/A
4:50 pm55 °FPassing clouds.12 mph55%30.15 "HgN/A
4:20 pm57 °FPassing clouds.10 mph51%30.15 "HgN/A
3:50 pm57 °FPassing clouds.10 mph51%30.15 "HgN/A
3:20 pm57 °FPassing clouds.10 mph55%30.15 "HgN/A
2:50 pm57 °FPassing clouds.13 mph55%30.15 "HgN/A
2:20 pm55 °FPassing clouds.9 mph55%30.15 "HgN/A
1:50 pm55 °FPassing clouds.9 mph55%30.15 "HgN/A
1:20 pm55 °FPassing clouds.9 mph55%30.15 "HgN/A
12:50 pm55 °FPassing clouds.10 mph55%30.15 "HgN/A
12:20 pm54 °FPassing clouds.12 mph58%30.18 "HgN/A
11:50 am54 °FPassing clouds.13 mph58%30.18 "HgN/A
11:20 am54 °FPassing clouds.9 mph54%30.18 "HgN/A
10:50 am54 °FPassing clouds.9 mph54%30.18 "HgN/A
10:20 am54 °FPassing clouds.9 mph54%30.18 "HgN/A
9:50 am54 °FPassing clouds.12 mph54%30.18 "HgN/A
9:20 am54 °FPassing clouds.9 mph58%30.18 "HgN/A
8:50 am52 °FPassing clouds.9 mph62%30.18 "HgN/A
8:20 am52 °FPassing clouds.9 mph67%30.18 "HgN/A
7:50 am52 °FPassing clouds.9 mph67%30.15 "HgN/A
7:20 am52 °FPassing clouds.10 mph72%30.15 "HgN/A
6:50 am52 °FPassing clouds.10 mph72%30.15 "HgN/A
6:20 am52 °FPassing clouds.10 mph77%30.15 "HgN/A
Weather by CustomWeather, © 2017

See weather overviewHow to use our weather pages